Weather History for Camden, AR

Change the Weather History Date:

Thursday, October 25, 2012

  Actual Average Record
Temperature  
Mean Temperature 71 °F -  
Max Temperature 82 °F 72 °F 89 °F (1941)
Min Temperature 60 °F 46 °F 27 °F (1982)
Cooling Degree Days 6    
Growing Degree Days 21 (Base 50)    
Moisture  
Dew Point 64 °F    
Average Humidity 80    
Maximum Humidity 94    
Minimum Humidity 58    
Precipitation  
Precipitation 0.23 in - - ()
Sea Level Pressure  
Sea Level Pressure 29.93 in    
Wind  
Wind Speed 5 mph (SSE)    
Max Wind Speed 13 mph    
Max Gust Speed 17 mph    
Visibility 8 miles    
Events Rain    
Averages and records for this station are not official NWS values.
T = Trace of Precipitation, MM = Missing Value Source: NWS Daily Summary

Daily Weather History Graph

Daily Weather History Graph

Search for Another Location

Airport:

Trip Planner

Search our weather history database for the weather conditions in past years. The results will help you decide how hot, cold, wet, or windy it might be!

Date:

Astronomy

Oct. 25, 2012 Rise Set
Actual Time 7:24 AM CDT 6:25 PM CDT
Civil Twilight 6:58 AM CDT 6:50 PM CDT
Nautical Twilight 6:29 AM CDT 7:19 PM CDT
Astronomical Twilight 6:00 AM CDT 7:48 PM CDT
Moon 4:02 PM CDT (10/25) 3:31 AM CDT (10/25)
Length of Visible Light 11h 51m
Length of Day
11h 00m
Waxing Gibbous, 84% of the Moon is Illuminated
Oct 25
Waxing Gibbous
Oct 29
Full
Nov 6
Last Quarter
Nov 13
New
Nov 20
First Quarter

Hourly Weather History & Observations

Time (CDT) Temp. Heat Index Dew Point Humidity Pressure Visibility Wind Dir Wind Speed Gust Speed Precip Events Conditions
12:15 AM 66.2 °F - 62.6 °F 88% 29.93 in 10.0 mi SE 4.6 mph - N/A   Clear
12:35 AM 66.2 °F - 62.6 °F 88% 29.92 in 10.0 mi SE 5.8 mph - N/A   Clear
12:55 AM 66.2 °F - 62.6 °F 88% 29.93 in 10.0 mi SSE 3.5 mph - N/A   Clear
1:15 AM 66.2 °F - 60.8 °F 83% 29.93 in 10.0 mi SE 4.6 mph - N/A   Clear
1:35 AM 66.2 °F - 60.8 °F 83% 29.92 in 10.0 mi SE 5.8 mph - N/A   Clear
1:55 AM 66.2 °F - 60.8 °F 83% 29.92 in 10.0 mi SE 5.8 mph - N/A   Clear
2:15 AM 66.2 °F - 60.8 °F 83% 29.91 in 10.0 mi SE 5.8 mph - N/A   Clear
2:35 AM 66.2 °F - 60.8 °F 83% 29.91 in 10.0 mi South 3.5 mph - N/A   Clear
2:55 AM 64.4 °F - 60.8 °F 88% 29.90 in 10.0 mi SE 3.5 mph - N/A   Clear
3:15 AM 64.4 °F - 60.8 °F 88% 29.90 in 10.0 mi SSE 3.5 mph - N/A   Clear
3:35 AM 64.4 °F - 60.8 °F 88% 29.90 in 10.0 mi Calm Calm - N/A   Clear
3:55 AM 62.6 °F - 59.0 °F 88% 29.90 in 10.0 mi Calm Calm - N/A   Clear
4:15 AM 62.6 °F - 59.0 °F 88% 29.90 in 9.0 mi Calm Calm - N/A   Clear
4:55 AM 62.6 °F - 59.0 °F 88% 29.91 in 9.0 mi Calm Calm - N/A   Clear
5:15 AM 62.6 °F - 59.0 °F 88% 29.91 in 9.0 mi Calm Calm - N/A   Clear
5:35 AM 62.6 °F - 59.0 °F 88% 29.92 in 8.0 mi Calm Calm - N/A   Clear
5:55 AM 62.6 °F - 59.0 °F 88% 29.93 in 6.0 mi Calm Calm - N/A   Clear
6:15 AM 60.8 °F - 59.0 °F 94% 29.93 in 4.0 mi Calm Calm - N/A   Clear
6:35 AM 62.6 °F - 59.0 °F 88% 29.94 in 7.0 mi Calm Calm - N/A   Clear
6:55 AM 62.6 °F - 59.0 °F 88% 29.95 in 5.0 mi SE 3.5 mph - N/A   Clear
7:15 AM 62.6 °F - 59.0 °F 88% 29.95 in 4.0 mi Calm Calm - N/A   Partly Cloudy
7:35 AM 62.6 °F - 60.8 °F 94% 29.96 in 5.0 mi South 5.8 mph - N/A   Mostly Cloudy
8:15 AM 64.4 °F - 62.6 °F 94% 29.96 in 4.0 mi SE 5.8 mph - N/A   Overcast
8:35 AM 66.2 °F - 64.4 °F 94% 29.96 in 4.0 mi SE 5.8 mph - N/A   Mostly Cloudy
8:55 AM 66.2 °F - 64.4 °F 94% 29.96 in 6.0 mi SE 6.9 mph - N/A   Scattered Clouds
9:15 AM 69.8 °F - 64.4 °F 83% 29.96 in 7.0 mi South 6.9 mph - N/A   Partly Cloudy
9:35 AM 69.8 °F - 64.4 °F 83% 29.97 in 7.0 mi South 5.8 mph - N/A   Partly Cloudy
9:55 AM 73.4 °F - 64.4 °F 73% 29.97 in 9.0 mi South 9.2 mph - N/A   Clear
10:15 AM 73.4 °F - 64.4 °F 73% 29.98 in 10.0 mi SW 11.5 mph - N/A   Scattered Clouds
10:35 AM 73.4 °F - 64.4 °F 73% 29.98 in 10.0 mi South 9.2 mph - N/A   Mostly Cloudy
10:55 AM 73.4 °F - 64.4 °F 73% 29.98 in 9.0 mi SSW 6.9 mph - N/A   Overcast
11:15 AM 75.2 °F - 64.4 °F 69% 29.98 in 9.0 mi SSW 10.4 mph - N/A   Mostly Cloudy
11:35 AM 73.4 °F - 64.4 °F 73% 29.98 in 10.0 mi South 9.2 mph - N/A   Overcast
12:15 PM 75.2 °F - 64.4 °F 69% 29.97 in 10.0 mi South 10.4 mph - N/A   Overcast
1:15 PM 75.2 °F - 66.2 °F 73% 29.94 in 10.0 mi South 5.8 mph - N/A   Mostly Cloudy
1:35 PM 75.2 °F - 66.2 °F 73% 29.94 in 10.0 mi SSW 4.6 mph - N/A   Scattered Clouds
1:55 PM 75.2 °F - 66.2 °F 73% 29.93 in 10.0 mi SSW 4.6 mph - N/A   Mostly Cloudy
2:15 PM 77.0 °F - 66.2 °F 69% 29.92 in 10.0 mi South 6.9 mph - N/A   Scattered Clouds
2:35 PM 80.6 °F 82.7 °F 66.2 °F 61% 29.91 in 7.0 mi South 5.8 mph - N/A   Clear
2:55 PM 80.6 °F 82.7 °F 66.2 °F 61% 29.91 in 10.0 mi South 4.6 mph - N/A   Partly Cloudy
3:15 PM 80.6 °F 82.7 °F 66.2 °F 61% 29.91 in 10.0 mi ESE 3.5 mph - N/A   Mostly Cloudy
3:35 PM 82.4 °F 84.6 °F 66.2 °F 58% 29.90 in 10.0 mi ESE 3.5 mph - N/A   Scattered Clouds
3:55 PM 82.4 °F 84.6 °F 66.2 °F 58% 29.89 in 10.0 mi South 6.9 mph 16.1 mph N/A   Scattered Clouds
4:15 PM 82.4 °F 84.6 °F 66.2 °F 58% 29.88 in 10.0 mi SSE 8.1 mph - N/A   Partly Cloudy
4:35 PM 80.6 °F 82.7 °F 66.2 °F 61% 29.88 in 10.0 mi SSE 8.1 mph - N/A   Clear
4:55 PM 80.6 °F 82.7 °F 66.2 °F 61% 29.88 in 10.0 mi SSE 8.1 mph - N/A   Clear
5:15 PM 80.6 °F 82.7 °F 66.2 °F 61% 29.89 in 10.0 mi SSE 6.9 mph - N/A   Clear
5:55 PM 77.0 °F - 66.2 °F 69% 29.89 in 9.0 mi SE 5.8 mph - N/A   Clear
6:15 PM 75.2 °F - 66.2 °F 73% 29.89 in 9.0 mi SE 9.2 mph - N/A   Clear
6:35 PM 73.4 °F - 66.2 °F 78% 29.89 in 10.0 mi SE 6.9 mph - N/A   Clear
6:55 PM 73.4 °F - 66.2 °F 78% 29.89 in 10.0 mi SE 6.9 mph - N/A   Clear
7:15 PM 73.4 °F - 66.2 °F 78% 29.89 in 10.0 mi SSE 4.6 mph - N/A   Clear
7:35 PM 73.4 °F - 66.2 °F 78% 29.90 in 10.0 mi SE 4.6 mph - N/A   Clear
8:15 PM 71.6 °F - 66.2 °F 83% 29.90 in 10.0 mi Calm Calm - N/A   Clear
8:35 PM 71.6 °F - 66.2 °F 83% 29.91 in 9.0 mi SE 4.6 mph - N/A   Scattered Clouds
8:55 PM 71.6 °F - 66.2 °F 83% 29.91 in 9.0 mi Calm Calm - N/A   Partly Cloudy
9:15 PM 71.6 °F - 66.2 °F 83% 29.92 in 10.0 mi Calm Calm - N/A   Clear
9:35 PM 71.6 °F - 66.2 °F 83% 29.95 in 7.0 mi NNW 9.2 mph - N/A Rain Light Rain
9:55 PM 71.6 °F - 66.2 °F 83% 29.94 in 7.0 mi Calm Calm - N/A Rain Light Rain
10:15 PM 71.6 °F - 68.0 °F 88% 29.94 in 7.0 mi North 4.6 mph - N/A Rain Light Rain
10:35 PM 69.8 °F - 68.0 °F 94% 29.94 in 2.5 mi North 8.1 mph - 0.04 in Rain Heavy Rain
10:55 PM 69.8 °F - 68.0 °F 94% 29.95 in 5.0 mi North 10.4 mph - 0.06 in Rain Rain
11:15 PM 66.2 °F - 64.4 °F 94% 29.97 in 4.0 mi North 10.4 mph - 0.04 in Rain Heavy Rain
11:35 PM 64.4 °F - 60.8 °F 88% 29.98 in 3.0 mi North 12.7 mph - 0.13 in Rain Heavy Rain
11:55 PM 62.6 °F - 59.0 °F 88% 29.99 in 4.0 mi NNW 11.5 mph 17.3 mph 0.17 in Rain Heavy Rain